[[{"header":{"parameterUnit":"m.s-1","parameterCategory":1,"la1":30.2991,"la2":30.254,"lo1":-89.0895,"lo2":-89.0444,"dy":0.0017,"dx":0.0017,"nx":28,"ny":28,"refTime":"2025-04-24T03:00:00:Z","depth":0,"parameterNumber":2,"parameterNumberName":"U-component_of_WINDS"},"data":[0,0,0,0,0,0,0,0,0,0,0,0,0,0,0,0,0,0,0,0,0,0,0,0,0,0,0,0,0,0,0,0,0,0,0,0,0,0,0,0,0,0,0,0,0,0,0,0,0,0,0,0,0,0,0,0,0,0,-1.924,-1.9241,0,-1.9341,-1.9342,-1.9343,-1.9375,-1.9375,-1.9374,-1.9374,-1.9478,-1.9481,-1.9485,0,0,0,0,0,0,0,0,0,0,0,0,0,-1.9075,-1.9077,-1.924,-1.9241,-1.9242,-1.9341,-1.9342,-1.9344,-1.9375,-1.9375,-1.9374,-1.9374,-1.9477,-1.9481,-1.9485,0,0,0,0,0,0,0,0,0,0,0,0,0,-1.9158,-1.9078,-1.9239,-1.927,-1.9274,-1.9341,-1.9342,-1.9344,-1.9376,-1.9375,-1.9374,-1.9373,-1.9476,-1.9481,-1.9486,-1.953,0,0,-1.95,-1.9502,0,0,0,0,0,0,0,0,-1.9153,-1.9164,-1.9264,-1.9268,-1.9272,-1.9345,-1.9322,-1.9406,-1.9376,-1.9337,-1.9374,-1.9373,-1.9435,-1.9443,-1.9463,-1.9534,-1.9539,-1.9501,-1.9504,-1.9506,-1.9507,0,0,0,0,0,0,0,-1.9147,-1.916,-1.928,-1.9266,-1.9271,-1.9279,-1.929,-1.9338,-1.9388,-1.934,-1.9343,-1.9354,-1.9437,-1.9459,-1.9466,-1.9541,-1.9501,-1.9505,-1.9508,-1.951,-1.9653,-1.9654,0,0,0,0,0,0,-1.9136,-1.9155,-1.9277,-1.9283,-1.921,-1.9282,-1.9295,-1.9322,-1.9388,-1.9397,-1.9355,-1.9355,-1.9451,-1.946,-1.947,-1.9526,-1.9506,-1.951,-1.9513,-1.9652,-1.9654,-1.9655,0,0,0,0,0,0,-1.9133,-1.9147,-1.9272,-1.922,-1.9236,-1.9286,-1.9317,-1.9325,-1.9347,-1.9399,-1.9408,-1.9368,-1.9451,-1.9463,-1.9515,-1.953,-1.9512,-1.9517,-1.9651,-1.9653,-1.9654,-1.9637,0,0,0,0,0,0,-1.9128,-1.9145,-1.9162,-1.922,-1.9239,-1.9315,-1.9318,-1.9327,-1.9355,-1.9356,-1.9414,-1.9423,-1.9451,-1.9507,-1.9519,-1.9536,-1.9521,-1.965,-1.9652,-1.9654,-1.9637,-1.9638,-1.9639,0,0,0,0,0,-1.9122,-1.9154,-1.9163,-1.9178,-1.9261,-1.9316,-1.9327,-1.9358,-1.9356,-1.9373,-1.9407,-1.9421,-1.9526,-1.9512,-1.9526,-1.9544,-1.9649,-1.9651,-1.9653,-1.9636,-1.9638,-1.9639,0,0,0,0,0,0,-1.9097,-1.9162,-1.9173,-1.9224,-1.9264,-1.9321,-1.9344,-1.9359,-1.9401,-1.9401,-1.9439,-1.9451,-1.95,-1.9528,-1.9511,-1.9591,-1.9588,-1.9593,-1.9571,-1.9573,-1.9574,-1.9565,-1.9525,0,0,0,0,0,-1.9097,-1.9136,-1.9191,-1.9231,-1.9251,-1.9294,-1.9319,-1.934,-1.9383,-1.94,-1.9438,-1.9479,-1.9522,-1.9549,-1.9591,-1.9642,-1.9654,-1.9661,-1.9662,-1.9663,-1.9666,-1.9695,-1.9699,-1.9661,-1.9661,-1.9661,0,0,-1.9099,-1.9139,-1.9161,-1.9227,-1.926,-1.93,-1.9308,-1.9349,-1.9379,-1.9406,-1.9457,-1.9486,-1.9535,-1.9586,-1.9611,-1.9611,-1.968,-1.9666,-1.9666,-1.9669,-1.9698,-1.9701,-1.9704,-1.9663,-1.9662,-1.9662,0,0,-1.9121,-1.9156,-1.9193,-1.9226,-1.9277,-1.9305,-1.9314,-1.9369,-1.939,-1.9441,-1.9463,-1.9499,-1.9571,-1.9605,-1.9632,-1.9668,-1.9682,-1.9681,-1.9687,-1.9714,-1.9717,-1.972,-1.9733,-1.9737,-1.9685,-1.9685,-1.9685,0,-1.9116,-1.9176,-1.921,-1.925,-1.9278,-1.9305,-1.9343,-1.9374,-1.9436,-1.9455,-1.9455,-1.9546,-1.9581,-1.9641,-1.965,-1.9671,-1.9682,-1.9674,-1.9714,-1.9717,-1.972,-1.9733,-1.9737,-1.9684,-1.9684,-1.9684,-1.9684,0,-1.9168,-1.9209,-1.9233,-1.9292,-1.9323,-1.9362,-1.9402,-1.9429,-1.9448,-1.9477,-1.9529,-1.9572,-1.9623,-1.9639,-1.9658,-1.9702,-1.97,-1.9707,-1.9705,-1.9723,-1.9735,-1.974,-1.9683,-1.9683,-1.9684,-1.9684,0,0,-1.9176,-1.9253,-1.9261,-1.9288,-1.9346,-1.9379,-1.942,-1.947,-1.9493,-1.9535,-1.957,-1.9631,-1.9637,-1.9667,-1.969,-1.9715,-1.974,-1.9718,-1.972,-1.972,-1.9791,-1.9785,-1.979,-1.9751,-1.9752,-1.9753,-1.9787,0,-1.9205,-1.9278,-1.9309,-1.9368,-1.9406,-1.9433,-1.9469,-1.9508,-1.9537,-1.9574,-1.9606,-1.9648,-1.9653,-1.9672,-1.9697,-1.9732,-1.9755,-1.973,-1.9783,-1.9785,-1.9769,-1.9797,-1.9791,-1.9821,-1.9792,-1.9793,-1.9793,0,-1.9248,-1.929,-1.9352,-1.9406,-1.9424,-1.9455,-1.9503,-1.9538,-1.9584,-1.9604,-1.9638,-1.966,-1.9704,-1.97,-1.9761,-1.9743,-1.9767,-1.9788,-1.979,-1.9795,-1.9789,-1.9802,-1.9831,-1.9835,-1.9801,-1.9801,-1.98,0,-1.9247,-1.9319,-1.9366,-1.9388,-1.9452,-1.9474,-1.9501,-1.9547,-1.9575,-1.9618,-1.9636,-1.9684,-1.971,-1.9746,-1.9781,-1.9775,-1.9839,-1.9838,-1.9856,-1.9855,-1.9867,-1.9865,-1.9899,-1.9884,-1.9884,-1.9884,-1.9883,0,-1.9276,-1.9313,-1.9366,-1.9394,-1.9437,-1.9474,-1.9514,-1.9544,-1.9584,-1.9619,-1.9646,-1.9679,-1.9723,-1.9761,-1.9788,-1.9835,-1.9846,-1.9863,-1.987,-1.986,-1.9858,-1.9876,-1.9874,-1.9885,-1.9885,-1.9884,-1.9884,0,-1.9281,-1.9319,-1.9371,-1.9427,-1.9443,-1.9471,-1.952,-1.9549,-1.9579,-1.9623,-1.9635,-1.9683,-1.9729,-1.9767,-1.9829,-1.9847,-1.9895,-1.9904,-1.9879,-1.9883,-1.9898,-1.9896,-1.9944,-1.9952,-1.9932,-1.9932,-1.9932,0,-1.9296,-1.9325,-1.9385,-1.941,-1.9437,-1.9478,-1.9507,-1.9544,-1.9573,-1.9628,-1.9651,-1.9699,-1.9739,-1.9813,-1.9853,-1.99,-1.9909,-1.9923,-1.9916,-1.9906,-1.9908,-1.9906,-1.9909,-1.9923,-1.9923,-1.9923,-1.9923,0,-1.9319,-1.9336,-1.9377,-1.9424,-1.9457,-1.9496,-1.9536,-1.9555,-1.96,-1.9632,-1.9679,-1.9711,-1.9773,-1.9821,-1.9872,-1.9902,-1.992,-1.9925,-1.9931,-1.9921,-1.9906,-1.9914,-1.988,-1.9923,-1.9923,-1.9923,-1.9923,-1.9923,-1.933,-1.9356,-1.9403,-1.9447,-1.9481,-1.9517,-1.9547,-1.9581,-1.9621,-1.9674,-1.9695,-1.9743,-1.979,-1.9861,-1.989,-1.9929,-1.9931,-1.9941,-1.9943,-1.9945,-1.9943,-1.99,-1.9939,-1.9939,-1.9939,-1.9939,-1.9939,0,-1.9353,-1.9384,-1.9425,-1.9479,-1.9514,-1.9528,-1.9573,-1.9601,-1.9644,-1.9685,-1.9725,-1.978,-1.9826,-1.987,-1.9919,-1.9942,-1.9952,-1.9954,-1.9952,-1.9958,-1.9939,-1.9928,-1.9945,-1.9945,-1.9945,-1.9945,-1.9945,-1.9945,-1.9369,-1.9416,-1.9438,-1.9502,-1.9533,-1.9581,-1.9605,-1.9639,-1.9672,-1.9732,-1.9771,-1.9799,-1.9842,-1.9895,-1.9938,-1.995,-1.9967,-1.9966,-1.998,-1.9961,-1.996,-1.9959,-1.9949,-1.997,-1.997,-1.9997,-1.9997,-1.9997]},{"header":{"parameterUnit":"m.s-1","parameterCategory":1,"la1":30.2991,"la2":30.254,"lo1":-89.0895,"lo2":-89.0444,"dy":0.0017,"dx":0.0017,"nx":28,"ny":28,"refTime":"2025-04-24T03:00:00:Z","depth":0,"parameterNumber":3,"parameterNumberName":"V-component_of_WINDS"},"data":[0,0,0,0,0,0,0,0,0,0,0,0,0,0,0,0,0,0,0,0,0,0,0,0,0,0,0,0,0,0,0,0,0,0,0,0,0,0,0,0,0,0,0,0,0,0,0,0,0,0,0,0,0,0,0,0,0,0,1.8492,1.8491,0,1.8394,1.8393,1.8392,1.84,1.8401,1.8403,1.8404,1.8297,1.8293,1.8289,0,0,0,0,0,0,0,0,0,0,0,0,0,1.8682,1.8679,1.8492,1.8491,1.849,1.8395,1.8393,1.8392,1.8399,1.8401,1.8403,1.8405,1.8299,1.8294,1.8289,0,0,0,0,0,0,0,0,0,0,0,0,0,1.8593,1.8678,1.8493,1.8482,1.848,1.8395,1.8393,1.8392,1.8399,1.8401,1.8403,1.8406,1.8301,1.8294,1.8288,1.8204,0,0,1.8269,1.8266,0,0,0,0,0,0,0,0,1.8598,1.8586,1.8485,1.8483,1.8481,1.8412,1.8421,1.8329,1.8398,1.843,1.8404,1.8407,1.8333,1.8324,1.8301,1.82,1.8195,1.8268,1.8264,1.8262,1.826,0,0,0,0,0,0,0,1.8605,1.8591,1.8453,1.8484,1.8481,1.8481,1.8471,1.8404,1.837,1.8427,1.8427,1.8416,1.8332,1.8307,1.8298,1.8193,1.8268,1.8263,1.8259,1.8256,1.8021,1.8018,0,0,0,0,0,0,1.8614,1.8596,1.8457,1.8451,1.8546,1.8476,1.8465,1.8431,1.8371,1.8364,1.8414,1.8417,1.8317,1.8306,1.8295,1.8193,1.8262,1.8256,1.8252,1.8023,1.802,1.8017,0,0,0,0,0,0,1.8618,1.8601,1.846,1.8523,1.8505,1.8471,1.8433,1.8428,1.8403,1.8361,1.8355,1.8395,1.8318,1.8304,1.8228,1.819,1.8253,1.8247,1.8026,1.8022,1.8019,1.799,0,0,0,0,0,0,1.8623,1.8603,1.8571,1.8523,1.8502,1.8396,1.8431,1.8425,1.8393,1.8395,1.8341,1.8334,1.8319,1.8237,1.8222,1.8182,1.8242,1.8029,1.8024,1.802,1.7994,1.7986,1.7978,0,0,0,0,0,1.863,1.8565,1.8569,1.8552,1.8462,1.8394,1.8382,1.8367,1.839,1.8357,1.8331,1.8336,1.8198,1.8229,1.8212,1.817,1.8031,1.8026,1.802,1.7997,1.7987,1.7979,0,0,0,0,0,0,1.8606,1.8558,1.8562,1.848,1.8441,1.8395,1.8353,1.8356,1.8308,1.8312,1.8295,1.8282,1.8206,1.8181,1.8217,1.8087,1.8117,1.8108,1.8106,1.8096,1.8088,1.8095,1.8237,0,0,0,0,0,1.8592,1.8542,1.8502,1.8433,1.8414,1.8388,1.8357,1.835,1.8308,1.8291,1.8259,1.8216,1.8164,1.8129,1.8078,1.7992,1.798,1.7955,1.7947,1.7941,1.7932,1.7886,1.7874,1.7999,1.7999,1.7999,0,0,1.8561,1.8529,1.8497,1.8428,1.8397,1.8345,1.8373,1.8316,1.8277,1.8281,1.8208,1.8184,1.8136,1.8055,1.8017,1.8031,1.7896,1.7934,1.7929,1.7923,1.7879,1.7867,1.7856,1.7995,1.7996,1.7997,0,0,1.8477,1.8448,1.8388,1.8358,1.8312,1.8295,1.8281,1.8236,1.822,1.8148,1.8151,1.8104,1.8013,1.7979,1.7949,1.7858,1.7861,1.7842,1.78,1.7755,1.7745,1.7737,1.7703,1.7692,1.7834,1.7834,1.7834,0,1.8443,1.8366,1.8356,1.83,1.8269,1.8275,1.8214,1.8184,1.8123,1.8101,1.8119,1.8007,1.7975,1.7887,1.7865,1.7842,1.7824,1.7846,1.7748,1.7739,1.7731,1.7699,1.7686,1.7832,1.7832,1.7832,1.7833,0,1.8326,1.8273,1.823,1.8174,1.8139,1.808,1.8061,1.8027,1.8024,1.8006,1.7932,1.7895,1.7838,1.7817,1.7812,1.7728,1.7739,1.7752,1.7782,1.7717,1.7687,1.7674,1.7829,1.783,1.783,1.7831,0,0,1.822,1.8164,1.8148,1.8123,1.8076,1.8033,1.7976,1.7922,1.7893,1.7852,1.7803,1.7728,1.7742,1.7709,1.7701,1.7662,1.7592,1.7681,1.7679,1.7664,1.7498,1.7487,1.7473,1.7596,1.7593,1.7592,1.7502,0,1.813,1.803,1.8022,1.7931,1.7881,1.7889,1.7839,1.7804,1.7786,1.7741,1.7721,1.7668,1.7691,1.7671,1.7633,1.7609,1.7558,1.7616,1.7548,1.7545,1.7557,1.7457,1.7444,1.7361,1.749,1.7488,1.7487,0,1.8011,1.797,1.7875,1.7837,1.7816,1.7771,1.7722,1.768,1.7641,1.7631,1.7597,1.7595,1.7536,1.7571,1.7488,1.7527,1.75,1.7484,1.7481,1.7471,1.751,1.7443,1.7334,1.7321,1.7468,1.747,1.7471,0,1.7942,1.7863,1.7796,1.7776,1.7729,1.7698,1.7677,1.764,1.761,1.7568,1.7547,1.7498,1.747,1.7432,1.7417,1.7444,1.7336,1.7369,1.7324,1.7325,1.7298,1.7299,1.7181,1.7284,1.7284,1.7285,1.7285,0,1.7841,1.7782,1.7765,1.7724,1.7659,1.7651,1.7586,1.7566,1.7535,1.7489,1.7493,1.745,1.7434,1.7389,1.7377,1.7311,1.7298,1.7288,1.7285,1.7286,1.7287,1.7265,1.727,1.7281,1.7282,1.7283,1.7283,0,1.7751,1.7738,1.7665,1.763,1.7619,1.7573,1.7541,1.7501,1.7487,1.7429,1.7416,1.7391,1.7338,1.7321,1.7256,1.7249,1.7171,1.7174,1.7184,1.7183,1.7139,1.7143,1.7001,1.6981,1.7099,1.7098,1.7097,0,1.7686,1.7642,1.7603,1.7574,1.7553,1.7506,1.7476,1.7467,1.7435,1.739,1.7355,1.7304,1.7262,1.7177,1.7153,1.7104,1.7105,1.7058,1.7097,1.71,1.7102,1.7104,1.71,1.705,1.7049,1.7048,1.7047,0,1.7573,1.757,1.7527,1.7483,1.7448,1.7412,1.7377,1.7353,1.7339,1.7304,1.7251,1.7219,1.7155,1.7104,1.7055,1.7032,1.7036,1.7036,1.7023,1.7022,1.7029,1.7024,1.7163,1.7038,1.7039,1.7039,1.704,1.704,1.7492,1.7454,1.7421,1.7374,1.7349,1.7317,1.7279,1.7261,1.7218,1.7166,1.7164,1.7107,1.7072,1.7007,1.6983,1.6938,1.6951,1.6932,1.6927,1.6922,1.6918,1.704,1.6929,1.6929,1.693,1.693,1.693,0,1.7378,1.7359,1.7316,1.7269,1.7233,1.7245,1.7208,1.7176,1.7127,1.7095,1.7055,1.6995,1.6947,1.6921,1.6872,1.6841,1.6842,1.6828,1.6829,1.6824,1.6909,1.6925,1.6829,1.6829,1.6829,1.6829,1.6829,1.6829,1.7314,1.725,1.7243,1.7167,1.7148,1.7094,1.7072,1.7043,1.7018,1.6952,1.6913,1.6898,1.6868,1.6818,1.6774,1.6768,1.6749,1.6733,1.6728,1.6808,1.6818,1.6828,1.6842,1.673,1.673,1.6647,1.6646,1.6645]}]]